When you browse on this site, cookies collect data to enhance your experience and personalize the content and advertising you see.
Visit our Privacy Policy to learn more. By continuing to use the site, you agree to this use of cookies and data.
  • In Hungary
  • List of Countries
  • For 7 days
  • Water Temperature
  • Weather Map
  • News
  • Weather Widgets
  • user-avatar
    Login

    Hourly Weather Gory

    Today, 22 November, Friday

    Time Temperature Precipitation Wind Pressure Humidity
    00:00 -7°C° 0 mm 1 mps 776 mmHg 42%
    01:00 -8°C° 0 mm 1 mps 776 mmHg 43%
    02:00 -8°C° 0 mm 1 mps 775 mmHg 43%
    03:00 -8°C° 0 mm 1 mps 775 mmHg 44%
    04:00 -8°C° 0 mm 1 mps 775 mmHg 45%
    05:00 -8°C° 0 mm 1 mps 775 mmHg 46%
    06:00 -8°C° 0 mm 1 mps 775 mmHg 47%
    07:00 -8°C° 0 mm 1 mps 775 mmHg 47%
    08:00 -8°C° 0 mm 1 mps 775 mmHg 46%
    09:00 -8°C° 0 mm 1 mps 775 mmHg 46%
    10:00 -7°C° 0 mm 1 mps 775 mmHg 43%
    11:00 -6°C° 0 mm 1 mps 775 mmHg 39%
    12:00 -3°C° 0 mm 1 mps 775 mmHg 36%
    13:00 -3°C° 0 mm 1 mps 775 mmHg 36%
    14:00 -3°C° 0 mm 1 mps 774 mmHg 37%
    15:00 -3°C° 0 mm 1 mps 774 mmHg 37%
    16:00 -4°C° 0 mm 1 mps 774 mmHg 39%
    17:00 -4°C° 0 mm 1 mps 773 mmHg 41%
    18:00 -6°C° 0 mm 1 mps 773 mmHg 43%
    19:00 -6°C° 0 mm 1 mps 773 mmHg 43%
    20:00 -6°C° 0 mm 1 mps 773 mmHg 43%
    21:00 -6°C° 0 mm 1 mps 773 mmHg 43%
    22:00 -7°C° 0 mm 1 mps 773 mmHg 43%
    23:00 -7°C° 0 mm 1 mps 773 mmHg 43%

    Tomorrow, 23 November, Saturday

    Time Temperature Precipitation Wind Pressure Humidity
    00:00 -7°C° 0 mm 1 mps 773 mmHg 43%
    01:00 -7°C° 0 mm 1 mps 773 mmHg 43%
    02:00 -7°C° 0 mm 1 mps 773 mmHg 43%
    03:00 -7°C° 0 mm 1 mps 773 mmHg 43%
    04:00 -7°C° 0 mm 1 mps 772 mmHg 43%
    05:00 -7°C° 0 mm 1 mps 772 mmHg 42%
    06:00 -7°C° 0 mm 1 mps 771 mmHg 42%
    07:00 -7°C° 0 mm 1 mps 772 mmHg 41%
    08:00 -7°C° 0 mm 1 mps 772 mmHg 39%
    09:00 -7°C° 0 mm 1 mps 772 mmHg 38%
    10:00 -6°C° 0 mm 1 mps 772 mmHg 36%
    11:00 -4°C° 0 mm 1 mps 771 mmHg 33%
    12:00 -3°C° 0 mm 1 mps 771 mmHg 30%
    13:00 -3°C° 0 mm 1 mps 771 mmHg 31%
    14:00 -3°C° 0 mm 1 mps 771 mmHg 31%
    15:00 -3°C° 0 mm 1 mps 771 mmHg 32%
    16:00 -3°C° 0 mm 1 mps 770 mmHg 33%
    17:00 -4°C° 0 mm 1 mps 770 mmHg 34%
    18:00 -5°C° 0 mm 0 mps 769 mmHg 35%
    19:00 -4°C° 0 mm 1 mps 769 mmHg 34%
    20:00 -4°C° 0 mm 1 mps 769 mmHg 34%
    21:00 -4°C° 0 mm 1 mps 770 mmHg 33%
    22:00 -4°C° 0 mm 1 mps 769 mmHg 33%
    23:00 -4°C° 0 mm 1 mps 769 mmHg 33%

    Day after tomorrow, 24 November, Sunday

    Time Temperature Precipitation Wind Pressure Humidity
    00:00 -4°C° 0 mm 1 mps 769 mmHg 32%
    01:00 -4°C° 0 mm 1 mps 769 mmHg 32%
    02:00 -4°C° 0 mm 1 mps 769 mmHg 32%
    03:00 -4°C° 0 mm 1 mps 769 mmHg 32%
    04:00 -4°C° 0 mm 1 mps 769 mmHg 32%
    05:00 -6°C° 0 mm 1 mps 769 mmHg 33%
    06:00 -6°C° 0 mm 1 mps 768 mmHg 33%
    07:00 -6°C° 0 mm 1 mps 768 mmHg 33%
    08:00 -6°C° 0 mm 1 mps 768 mmHg 33%
    09:00 -6°C° 0 mm 1 mps 768 mmHg 33%
    10:00 -4°C° 0 mm 1 mps 768 mmHg 31%
    11:00 -3°C° 0 mm 1 mps 768 mmHg 29%
    12:00 -2°C° 0 mm 1 mps 768 mmHg 27%
    13:00 -2°C° 0 mm 1 mps 767 mmHg 28%
    14:00 -2°C° 0 mm 1 mps 767 mmHg 29%
    15:00 -2°C° 0 mm 1 mps 767 mmHg 30%
    16:00 -3°C° 0 mm 1 mps 767 mmHg 31%
    17:00 -3°C° 0 mm 1 mps 766 mmHg 33%
    18:00 -4°C° 0 mm 1 mps 766 mmHg 34%
    19:00 -4°C° 0 mm 1 mps 766 mmHg 34%
    20:00 -4°C° 0 mm 1 mps 766 mmHg 34%
    21:00 -6°C° 0 mm 2 mps 766 mmHg 34%
    22:00 -4°C° 0 mm 1 mps 766 mmHg 34%
    23:00 -4°C° 0 mm 1 mps 765 mmHg 34%

    25 November, Monday

    Time Temperature Precipitation Wind Pressure Humidity
    00:00 -6°C° 0 mm 1 mps 765 mmHg 35%
    01:00 -6°C° 0 mm 1 mps 765 mmHg 35%
    02:00 -7°C° 0 mm 2 mps 765 mmHg 35%
    03:00 -7°C° 0 mm 2 mps 765 mmHg 35%
    04:00 -7°C° 0 mm 2 mps 765 mmHg 35%
    05:00 -6°C° 0 mm 1 mps 764 mmHg 35%
    06:00 -6°C° 0 mm 1 mps 764 mmHg 35%
    07:00 -6°C° 0 mm 1 mps 764 mmHg 35%
    08:00 -7°C° 0 mm 2 mps 764 mmHg 35%
    09:00 -7°C° 0 mm 2 mps 764 mmHg 35%
    10:00 -6°C° 0 mm 2 mps 764 mmHg 32%
    11:00 -5°C° 0 mm 2 mps 764 mmHg 29%
    12:00 -4°C° 0 mm 2 mps 764 mmHg 26%
    13:00 -4°C° 0 mm 2 mps 763 mmHg 27%
    14:00 -4°C° 0 mm 2 mps 763 mmHg 28%
    15:00 -4°C° 0 mm 2 mps 763 mmHg 28%
    16:00 -5°C° 0 mm 2 mps 762 mmHg 30%
    17:00 -5°C° 0 mm 2 mps 762 mmHg 31%
    18:00 -6°C° 0 mm 2 mps 762 mmHg 33%
    19:00 -6°C° 0 mm 2 mps 762 mmHg 33%
    20:00 -6°C° 0 mm 2 mps 762 mmHg 33%
    21:00 -6°C° 0 mm 2 mps 762 mmHg 33%
    22:00 -7°C° 0 mm 2 mps 762 mmHg 33%
    23:00 -7°C° 0 mm 2 mps 762 mmHg 33%

    26 November, Tuesday

    Time Temperature Precipitation Wind Pressure Humidity
    00:00 -7°C° 0 mm 2 mps 762 mmHg 34%
    01:00 -7°C° 0 mm 2 mps 761 mmHg 34%
    02:00 -7°C° 0 mm 2 mps 761 mmHg 34%
    03:00 -7°C° 0 mm 2 mps 761 mmHg 35%
    04:00 -8°C° 0 mm 2 mps 761 mmHg 35%
    05:00 -8°C° 0 mm 2 mps 761 mmHg 36%
    06:00 -8°C° 0 mm 2 mps 760 mmHg 36%
    07:00 -8°C° 0 mm 2 mps 760 mmHg 36%
    08:00 -8°C° 0 mm 2 mps 760 mmHg 36%
    09:00 -8°C° 0 mm 2 mps 760 mmHg 36%
    10:00 -7°C° 0 mm 2 mps 760 mmHg 34%
    11:00 -6°C° 0 mm 2 mps 760 mmHg 31%
    12:00 -5°C° 0 mm 2 mps 760 mmHg 29%
    13:00 -5°C° 0 mm 2 mps 760 mmHg 30%
    14:00 -5°C° 0 mm 2 mps 759 mmHg 31%
    15:00 -5°C° 0 mm 2 mps 759 mmHg 32%
    16:00 -5°C° 0 mm 2 mps 759 mmHg 35%
    17:00 -6°C° 0 mm 2 mps 759 mmHg 37%
    18:00 -7°C° 0 mm 2 mps 759 mmHg 40%
    19:00 -7°C° 0 mm 2 mps 758 mmHg 42%
    20:00 -7°C° 0 mm 2 mps 758 mmHg 44%
    21:00 -7°C° 0 mm 2 mps 758 mmHg 46%
    22:00 -7°C° 0 mm 2 mps 758 mmHg 48%
    23:00 -7°C° 0 mm 2 mps 758 mmHg 50%

    27 November, Wednesday

    Time Temperature Precipitation Wind Pressure Humidity
    00:00 -8°C° 0 mm 2 mps 758 mmHg 53%
    01:00 -8°C° 0 mm 2 mps 758 mmHg 55%
    02:00 -8°C° 0 mm 2 mps 757 mmHg 57%
    03:00 -8°C° 0 mm 2 mps 757 mmHg 59%
    04:00 -8°C° 0 mm 2 mps 757 mmHg 60%
    05:00 -8°C° 0 mm 2 mps 757 mmHg 62%
    06:00 -8°C° 0 mm 2 mps 757 mmHg 63%
    07:00 -8°C° 0 mm 2 mps 757 mmHg 65%
    08:00 -8°C° 0 mm 2 mps 757 mmHg 66%
    09:00 -8°C° 0 mm 2 mps 756 mmHg 68%
    10:00 -8°C° 0 mm 3 mps 756 mmHg 66%
    11:00 -7°C° 0 mm 3 mps 756 mmHg 63%
    12:00 -6°C° 0 mm 3 mps 756 mmHg 61%
    13:00 -6°C° 0 mm 3 mps 756 mmHg 63%
    14:00 -6°C° 0 mm 3 mps 755 mmHg 64%
    15:00 -5°C° 0 mm 3 mps 755 mmHg 66%
    16:00 -6°C° 0 mm 3 mps 755 mmHg 67%
    17:00 -6°C° 0 mm 3 mps 755 mmHg 68%
    18:00 -6°C° 0 mm 3 mps 755 mmHg 69%
    19:00 -6°C° 0 mm 3 mps 755 mmHg 70%
    20:00 -6°C° 0 mm 3 mps 755 mmHg 71%
    21:00 -6°C° 0 mm 3 mps 754 mmHg 72%
    22:00 -6°C° 0 mm 3 mps 754 mmHg 72%
    23:00 -6°C° 0 mm 3 mps 754 mmHg 72%
    Show more